Regional Weather Roundup
Issued by NWS Charleston, SC

Current Version | Previous Version | Graphics & Text | Print | Product List | Glossary On
Versions: 1 2 3 4 5 6 7 8 9 10 11 12 13 14 15 16 17 18 19 20 21 22 23 24 25 26 27 28 29 30 31 32 33 34 35 36 37 38 39 40 41 42 43 44 45 46 47 48 49 50
000
ASUS42 KCHS 240410
RWRCHS

REGIONAL WEATHER ROUNDUP
NATIONAL WEATHER SERVICE CHARLESTON SC
1200 AM EDT THU APR 24 2014

NOTE: "FAIR" INDICATES FEW OR NO CLOUDS BELOW 12,000 FEET WITH NO
SIGNIFICANT WEATHER AND/OR OBSTRUCTIONS TO VISIBILITY.

NOT ALL STATIONS ARE QUALITY CONTROLLED BY THE NATIONAL
WEATHER SERVICE. USE DATA WITH CAUTION...ESPECIALLY
DEWPOINT OBSERVATIONS.

SCZ027-030-031-034>040-042>050-240500-
...SOUTH CAROLINA...

CITY           SKY/WX    TMP DP  RH WIND       PRES   REMARKS
N CHARLESTON   CLEAR     63  52  67 NE3       29.94R
WATERFRONT PRK   N/A     66 N/A N/A N3          N/A
FORT JOHNSON   NOT AVBL
MOUNT PLEASANT FAIR      61  61 100 CALM      29.93R FOG
JOHNS ISLAND   CLEAR     61  61 100 CALM      29.94R FOG
PINOPOLIS        N/A     70  52  52 E3        29.86R
MONCKS CORNER  FAIR      59  57  94 CALM      29.93R
SUMMERVILLE    NOT AVBL
BEAUFORT MCAS  CLEAR     61  52  72 CALM      29.92R
BEAUFORT ARPT  FAIR      61  59  94 CALM      29.92S
HILTON HEAD IS NOT AVBL
GEORGETOWN     NOT AVBL
WALTERBORO     CLEAR     55 N/A N/A CALM      29.94R
ORANGEBURG     CLEAR     58  52  80 CALM      29.93R
BARNWELL       FAIR      57  48  72 CALM      29.93S
AIKEN          FAIR      55  52  88 CALM      29.97R
MANNING        FAIR      54  54 100 CALM      29.95R
KINGSTREE      NOT AVBL
COLUMBIA       CLEAR     57  48  72 CALM      29.94R
SUMTER         CLEAR     57  43  60 CALM      29.93R
FLORENCE       CLEAR     53  41  63 CALM      29.95R
MYRTLE BEACH   CLEAR     63  48  59 NE8       29.95R
N MYRTLE BEACH CLEAR     56  47  71 CALM      29.95R

$$

GAZ063-065-086>088-099>101-113>116-118-119-134-136>141-150-240500-
...GEORGIA...

CITY           SKY/WX    TMP DP  RH WIND       PRES   REMARKS
SAVANNAH ARPT  CLEAR     65  56  72 CALM      29.93R
HUNTER AAF     CLEAR     62  56  80 CALM      29.91R
FORT STEWART   CLEAR     63  62  97 CALM      29.92R
STATESBORO     NOT AVBL
SYLVANIA       CLEAR     60  54  81 CALM      29.93R
CLAXTON        FAIR     N/A N/A N/A CALM      29.93S
THOMSON        CLEAR     54  54 100 CALM      29.98R
AUGUSTA-BUSH   CLEAR     54  49  83 CALM      29.93R
AUGUSTA-DANIEL CLEAR     66  41  40 CALM      29.94R
SWAINSBORO     FAIR      54  52  94 CALM      29.94R
VIDALIA        CLEAR     63  57  82 CALM      29.94R
ALMA           CLEAR     60  58  92 CALM      29.93S FOG
WAYCROSS       NOT AVBL
JESUP          FAIR      57  57 100 CALM      29.94R
BRUNSWICK      CLEAR     63  63 100 CALM      29.95R
SAINT SIMONS   CLEAR     68  62  81 CALM      29.94R

$$

SCZ027-028-034-036>038-045-046-048>050-GAZ119-141-240500-
...LAKE AND SUPPLEMENTAL COASTAL OBSERVATIONS...

STATION/POSITION TIME  TEMP    WIND        PRES    WAVE   SWELL
                       AIR SEA DIR/SP/G            HT/PER HT/PER/DIR
                 (UTC) (F)     (DEG/KT/KT) (MB)    (FT/S) (FT/S/D)
UPR LAKE MARION  NOT AVBL
WINYAH BAY       0300   64        CALM     1013.0S
LAKE MURRAY      0300   59        CALM     1013.2R
ACE BASIN NERRS  0300   63        CALM     1012.0S
FORT PULASKI     0400   67 60  200/  4/  5 1013.6S
SAPELO ISLAND    0300   68     160/  5     1013.0S

$$

ANZ835-935-AMZ111-154-330-350-352-354-374-450-454-472-240500-
...C-MAN AND BUOY OBSERVATIONS...

STATION/POSITION TIME  TEMP    WIND        PRES    WAVE   SWELL
                       AIR SEA DIR/SP/G            HT/PER HT/PER/DIR
                 (UTC) (F)     (DEG/KT/KT) (MB)    (FT/S) (FT/S/D)
FOLLY BEACH CMAN 0300   66     220/  3/  4 1013.5R
BUOY 41004       0400   67 67  250/  6/  6 1013.0R   2/ 8   2/ 8
BUOY 41008       0400   69 67  210/  8/  8 1013.7R   1/ 8   2/100/ 8
5E ST. MARYS GA  0400      69                N/A     2/ 9
FRYING PAN BUOY  0400   67 68   50/  6/  8 1013.9R   2/ 9   2/110/ 9
BUOY 41025       0400   62 75  360/ 12/ 16 1013.9R   4/ 9   3/ 40/ 9
CAPE LOOKOUT NC  0300   62      30/  4/  4 1013.2R
BUOY 41002       NOT AVBL
BUOY 41010       0400   74 75  230/  4/  6 1014.8R   2/ 8   2/ 60/ 8
BUOY 41012       NOT AVBL
ST AUGUSTINE FL  0400   70     190/  7/  9 1014.5S
CAPERS NEARSHORE NOT AVBL
FRIPP NEARSHORE  0300   67     230/  8/ 10   N/A


$$


USA.gov is the U.S. government's official web portal to all federal, state and local government web resources and services.